Regional Weather Roundup
Issued by NWS

Home | Current Version | Previous Version | Text Only | Print | Product List | Glossary On
Versions: 1 2 3 4 5 6 7 8 9 10 11 12 13 14 15 16 17 18 19 20 21 22 23 24 25 26 27 28 29 30 31 32 33 34 35 36 37 38 39 40 41 42 43 44 45 46 47 48 49 50
000
ASUS43 KTOP 220408
RWRKS

WEATHER ROUNDUP FOR KANSAS
NATIONAL WEATHER SERVICE GOODLAND KS
1100 PM CDT SAT SEP 21 2019

NOTE:  "FAIR" INDICATES FEW OR NO CLOUDS BELOW 12,000 FEET WITH NO
SIGNIFICANT WEATHER AND/OR OBSTRUCTIONS TO VISIBILITY.

KSZ001>006-013>018-027>032-041>047-220500-
NORTHWEST KANSAS

CITY           SKY/WX    TMP DP  RH WIND       PRES   REMARKS
GOODLAND       MOCLDY    64  40  41 E8        29.91R
HAYS           MOCLDY    69  62  78 VRB6      29.88R
HILL CITY      CLEAR     68  60  75 E7        29.87F
RUSSELL        CLOUDY    69  62  78 NW13G21   29.89R
$$

KSZ061>065-074>080-084>089-220500-
SOUTHWEST KANSAS

CITY           SKY/WX    TMP DP  RH WIND       PRES   REMARKS
DODGE CITY     CLEAR     76  64  66 S18G31    29.87R
ELKHART        PTCLDY    70  60  70 S18       29.90R
GARDEN CITY    CLEAR     73  64  73 S10G21    29.86R
GREAT BEND     CLEAR     77  67  71 SW5       29.89R
LIBERAL        CLEAR     72  66  81 S17       29.91R
PRATT          CLEAR     77  65  67 S8        29.89R
$$

KSZ066>073-081>083-090>101-220500-
SOUTHEAST KANSAS

CITY           SKY/WX    TMP DP  RH WIND       PRES   REMARKS
CHANUTE        CLEAR     77  69  76 S15G25    29.93S
COFFEYVILLE    CLEAR     76  68  76 S13G21    29.93S
HUTCHINSON     CLEAR     80  68  66 S15G33    29.86S
MEDICINE LODGE   N/A     78  68  71 S26G44    29.80F
NEWTON         PTCLDY    76  70  82 S21G28    29.88S
PARSONS        CLEAR     76  69  79 S9        29.95S
WICHITA INTL   CLOUDY    79  70  74 S20       29.89R
WICHITA JABRA  MOCLDY    77  70  79 S15G26    29.89F
WICHITA MCCONL CLOUDY    77  67  72 SE16      29.91R
WINFIELD       PTCLDY    77  69  76 S15G25    29.92S
$$

KSZ007>012-019>026-033>040-048>060-102>105-220500-
NORTHEAST KANSAS

CITY           SKY/WX    TMP DP  RH WIND       PRES   REMARKS
CONCORDIA      RAIN      68  66  93 E5        29.88F
EMPORIA        CLEAR     74  72  93 S10       29.91R
LAWRENCE       MOCLDY    74  71  91 SE5       29.92R
MANHATTAN      CLEAR     78  70  76 SW7       29.87R
MARYSVILLE     CLOUDY    63  63 100 W7        29.94S
OLATHE IND     MOCLDY    74  69  85 S9        29.95R
OLATHE EXE     CLOUDY    74  69  85 S13       29.94R
SALINA         PTCLDY    79  69  71 S10       29.85R
TOPEKA BILLARD CLEAR     77  69  76 SE10      29.89R
TOPEKA FORBES  CLEAR     76  69  79 S10       29.90R
$$



USA.gov is the U.S. government's official web portal to all federal, state and local government web resources and services.